Weather in Barcelos

Portugal     41°32′22″N   8°36′44″W
temp.,
°C
wind,
m/s
gust,
m/s
humid.,
%
clouds,
%
prec.,
mm/h
press.,
hPa
HPBL,
m
6 may, thu
thu601:00+11ene1194100 0.0 101913
04:00+10e119597 0.0 101911
07:00+10ene119576 0.0 101914
10:00+17w1266100 0.0 1019573
13:00+20w4456100 0.0 10191357
16:00+20w55585 0.0 10191162
19:00+17w457115 0.0 1019722
22:00+12sw11965 0.0 102130
7 may, fri
fri701:00+11ese11975 0.0 102111
04:00+11e11977 0.0 102010
07:00+11e11965 0.0 102014
10:00+18wsw11653 0.0 1020635
13:00+21wsw33490 0.0 10191150
16:00+21w43480 0.0 1018930
19:00+18w33621 0.0 1018526
22:00+12wsw119273 0.0 101914
8 may, sat
sat801:00+11e119363 0.0 101811
04:00+10e119297 0.0 101611
07:00+10e1189100 0.0 101519
10:00+17s135969 0.0 1013627
13:00+21sw464343 0.0 10121305
16:00+20sw58450 0.0 10101168
19:00+17sw48630 0.0 1008874
22:00+13sse2789100 0.0 1008314
9 may, sun
sun901:00+14s41189100 0.4 1006709
04:00+11wnw5997100 12.2 1004674
07:00+10sse119678 20.4 100567
10:00+12wsw248649 0.5 1007491
13:00+15wsw57694 2.4 10081250
16:00+15w57632 1.3 10081363
19:00+14w46693 1.8 10091160
22:00+9wsw11925 0.4 101120
10 may, mon
mon1001:00+8ese11979 1.4 101119
04:00+7ese119835 1.5 101119
07:00+8ese1198100 2.8 101142
10:00+10s1289100 2.7 1012228
13:00+10wsw258985 5.0 1012461
16:00+12wnw587242 2.1 10121453
19:00+11wnw477817 3.4 10141066
22:00+7w13939 2.0 101685